Location: Arthez
(43.0833°N, 0.2500°W)
Time: 00:35:18
(UTC+00:00)

Cosmos 44 - Pass Details

Date: 23 October 2021
Orbit: 580 x 782 km, 65.1° (Epoch: 06 December)

Event Time Altitude Azimuth Distance (km) Brightness Sun altitude
Rises 17:54:22 0° 181° (S) 3,241 6.9 -9.6°
Reaches altitude 10° 17:57:02 10° 170° (S) 2,326 6.0 -10.1°
Maximum altitude 18:01:35 29° 112° (ESE) 1,417 4.4 -10.9°
Enters shadow 18:05:39 12° 57° (ENE) 2,176 5.3 -11.6°
